Terminal Aerodrome Forecast
Issued by NWS

Home | Current Version | Previous Version | Text Only | Print | Product List | Glossary On
Versions: 1 2 3 4 5 6 7 8 9 10 11 12
000
FTUS46 KHNX 062330
TAFMER
TAF
KMER 062330Z 0700/0724 33015G20KT P6SM FEW120
     FM071200 32010G15KT P6SM FEW100=

USA.gov is the U.S. government's official web portal to all federal, state and local government web resources and services.